カタログに戻る

STARLINK-34923

運用中通信SSO
NORAD 65247·PAYLOAD·🇺🇸 United States

打ち上げ Aug 18, 2025 から Vandenberg Space Force Base

Loading…

次のパス (今後24時間)

TLE

最新Source: CelesTrak SupGP

元期: Sep 14, 2026, 14:21 UTC

1 65247C 25179N   26257.59840278 -.00011079  00000+0 -34385-3 0  2575
2 65247  97.2832 297.0556 0001108 107.1914 196.4676 15.33451430    13

AllMySatでSTARLINK-34923をリアルタイム追跡

Download on the App Store